Tracking 35275 objects as of 8-Sep-2026
HD Live streaming from Space Station
objects crossing your sky now

SIRIUS XM-10

Track SIRIUS XM-10 now!
SIRIUS XM-10 is classified as:


NORAD ID: 64290
Int'l Code: 2025-122A
Launch date: June 7, 2025
Source: United States (US)
Launch site: AIR FORCE EASTERN TEST RANGE (AFETR)
Your satellite tracking list
Your tracking list is empty




NASA's NSSDC Master Catalog

Two Line Element Set (TLE):
1 64290U 25122A   26250.70927206 -.00000037  00000-0  00000-0 0  9992
2 64290   0.0206  48.8000 0001736 299.8921 137.2661  1.00271666  4513
Source of the keplerian elements: AFSPC